View from above orbital plane
|
View from above satellite
|
Ground track
|
The orbit data is extracted from the following two-line orbital elements,
1 12903U 81103A 13143.86932795 .00012039 00000-0 34731-3 0 8916
2 12903 081.1420 260.9628 0007448 182.5584 324.8448 15.35549019730377
| Epoch (UTC): | 23 May 2013 20:51:49 |
| Eccentricity: | 0.0007448 |
| inclination: | 81.1420° |
| perigee height: | 454 km |
| apogee height: | 464 km |
| right ascension of ascending node: | 260.9628° |
| argument of perigee: | 182.5584° |
| revolutions per day: | 15.35549019 |
| mean anomaly at epoch: | 324.8448° |
| orbit number at epoch: | 73037 |
The dashed part of the orbit path shows where the satellite is in the earth's shadow,
|
|